Погода в Дженовичи

Черногория     42°26′16″N   18°36′51″E
темп.,
°C
ветер,
м/с
пор.,
м/с
влажн.,
%
обл.,
%
осадки,
мм/ч
давл.,
гПа
погр.,
м
13 мая, чт
чт1323:00+12всв22755 0.1 101180
02:00+12всв337146 0.1 101068
05:00+12вюв2276100 0.2 1009117
08:00+13ююв3478100 1.2 1008411
11:00+13ю5782100 1.1 1008884
14:00+12ююз238363 2.6 1009493
17:00+13ю237133 0.8 1009434
20:00+12вюв348659 1.6 1010232
14 мая, пт
пт1423:00+12всв458454 1.1 1011182
02:00+12вюв358599 3.4 1011373
05:00+12юв458480 1.6 1011669
08:00+13ююз34769 3.1 1012642
11:00+13ююв357282 0.6 10141027
14:00+15ююв56595 0.8 10141145
17:00+15ююв456049 0.0 1013788
20:00+13в468035 0.0 1013311
15 мая, сб
сб1523:00+12в577552 0.0 1013304
02:00+13в5781100 1.1 1012406
05:00+11ююв4592100 2.0 1012531
08:00+11вюв3490100 3.8 1012245
11:00+12в2384100 1.3 1012294
14:00+12в238297 1.7 1012348
17:00+13з017795 0.1 1012283
20:00+12юв118549 0.2 1012181
16 мая, вс
вс1623:00+12ссв108323 0.0 1013160
02:00+11с1183100 0.0 1013194
05:00+11ссв1182100 0.0 1012153
08:00+13зюз1179100 0.0 1013329
11:00+14юз2282100 0.1 1013400
14:00+15зюз337699 0.1 1013611
17:00+15зюз237714 0.1 1013514
20:00+13ссв118759 0.1 101358
17 мая, пн
пн1723:00+14ююв1182100 0.0 1014155
02:00+13всв228182 0.0 101396
05:00+13всв337899 0.0 101395
08:00+16вюв237084 0.0 1013246
11:00+17ююв45704 0.0 1013454
14:00+18ююв566626 0.0 1013580
17:00+18юв566586 0.0 1013480
20:00+16в46747 0.0 101388